Location: Deuil
(48.9767°N, 2.3272°E)
Time: 23:06:03
(UTC+00:00)

deb Meteor-2 - Visible Passes

Search period start: 10 August 2022 00:00
Search period end: 20 August 2022 00:00
Orbit: 831 x 880 km, 81.3° (Epoch: 09 August)

Date Brightness Start Highest point End Pass type
(mag) Time Alt. Az. Time Alt. Az. Time Alt. Az.
12 Aug ? 03:58:39 10° ESE 04:02:02 17° E 04:05:26 10° NE visible
13 Aug ? 03:48:18 10° ESE 03:51:31 16° E 03:54:44 10° NE visible
14 Aug ? 03:37:59 10° ESE 03:41:00 15° E 03:44:03 10° NE visible
15 Aug ? 03:27:40 10° ESE 03:30:30 14° E 03:33:19 10° NE visible
16 Aug ? 03:17:23 10° ESE 03:19:59 14° E 03:22:35 10° NE visible
17 Aug ? 03:07:08 10° ESE 03:09:29 13° E 03:11:49 10° NE visible
18 Aug ? 02:56:55 10° E 02:58:58 12° E 03:01:01 10° ENE visible
19 Aug ? 02:46:46 10° E 02:48:27 11° ENE 02:50:09 10° ENE visible
